SCP
0 0 0 0 0 -0 0 0 -0 0 0 0 0 0 0 0 0 0 0 0 0 0 0 0 0 0 0 0 0 0 0 0 0 0 0 0 0 0 0 0 0 0 0 0
0 0 0 0 0 0 0 0 0 0 0 0 0 0 0 0 0 0 0 0 0 0 0 0 0 0 0 0 0 0 0 0 0 0 0 0 0 0 0 0 0 0 0 0
0 0 0 0 0 0 0 0 0 0 0 0 0 0 0 0 0 0 0 0 0 0 0 0 0 0 0 0 0 0 0 0 0 0 0 0 0 0 0 0 0 0 0 0
0 0 0 0 0 0 0 0 0 0 0 0 0 0 0 0 0 0 0 0 0 0 0 0 0 0 0 0 0 0 0 0 0 0 0 0 0 0 0 0 0 0 0 0
0 0 0 0 0 0 0 0 0 0 0 0 0 0 0 0 0 0 0 0 0 0 0 0 0 0 0 0 0 0 0 0 0 0 0 0 0 0 0 0 0 0 0 0
0 0 0 0 0 0 0 0 0 0 0 0 0 0 0 0 0 0 0 0 0 0 0 0 0 0 0 0 0 0 0 0 0 0 0 0 0 0 0 0 0 0 0 0
0 0 0 0 0 0 0 0 0 0 0 0 0 0 0 0 0 0 0 0 0 0 0 0 0 0 0 0 0 0 0 0 0 0 0 0 0 0 0 0 0 0 0 0
0 0 0 0 0 0 0 0 0 0 0 0 0 0 0 0 0 0 0 0 0 0 0 0 0 0 0 0 0 0 0 0 0 0 0 0 0 0 0 0 0 0 0 0
0 0 0 0 0 0 0 0 0 0 0 0 0 0 0 0 0 0 0 0 0 0 0 0 0 0 0 0 0 0 0 0 0 0 0 0 0 0 0 0 0 0 0 0
0 0 0 0 0 0 0 0 0 0 0 0 0 0 0 0 0 0 0 0 0 0 0 0 0 0 0 0 0 0 0 0 0 0 0 0 0 0 0 0 0 0 0 0
0 0 0 0 0 0 0 0 0 0 0 0 0 0 0 0 0 0 0 0 0 0 0 0 0 0 0 0 0 0 0 0 0 0 0 0 0 0 0 0 0 0 0 0
0 0 0 0 0 0 0 0 0 0 0 0 0 0 0 0 0 0 0 0 0 0 0 0 0 0 0 0 0 0 0 0 0 0 0 0 0 0 0 0 0 0 0 0
0 0 0 0 0 0 0 0 0 0 0 0 0 0 0 0 0 0 0 0 0 0 0 0 0 0 0 0 0 0 0 0 0 0 0 0 0 0 0 0 0 0 0 0
0 0 0 0 0 0 0 0 0 0 0 0 0 0 0 0 0 0 0 0 0 0 0 0 0 0 0 0 0 0 0 0 0 0 0 0 0 0 0 0 0 0 0 0
0 0 0 0 0 0 0 0 0 0 0 0 0 0 0 0 0 0 0 0 0 0 0 0 0 0 0 0 0 0 0 0 0 0 0 0 0 0 0 0 0 0 0 0
0 0 0 0 0 0 0 0 0 0 0 0 0 0 0 0 0 0 0 0 0 0 0 0 0 0 0 0 0 0 0 0 0 0 0 0 0 0 0 0 0 0 0 0
0 0 0 0 0 0 0 0 0 0 0 0 0 0 0 0 0 0 0 0 0 0 0 0 0 0 0 0 0 0 0 0 0 0 0 0 0 0 0 0 0 0 0 0
0 0 0 0 0 0 0 0 0 0 0 0 0 0 0 0 0 0 0 0 0 0 0 0 0 0 0 0 0 0 0 0 0 0 0 0 0 0 0 0 0 0 0 0
0 0 0 0 0 0 0 0 0 0 0 0 0 0 0 0 0 0 0 0 0 0 0 0 0 0 0 0 0 0 0 0 0 0 0 0 0 0 0 0 0 0 0 0
0 0 0 0 0 0 -0 0 0 0 0 0 0 0 0 0 0 0 0 0 0 0 0 0 0 0 0 0 0 0 0 0 0 0 0 0 0 0 0 0 0 0 0 0
0 0 0 0 0 0 0 0 0 0 0 0 0 0 0 0 0 0 0 0 0 0 0 0 0 0 0 0 0 0 0 0 0 0 0 0 0 0 0 0 0 0 0 0
0 0 0 0 0 0 0 0 0 0 0 0 0 0 0 0 0 0 0 0 0 0 0 0 0 0 0 0 0 0 0 0 0 0 0 0 0 0 0 0 0 0 0 0
0 0 0 0 0 0 0 0 0 0 0 0 0 0 0 0 0 0 0 0 0 0 0 0 0 0 0 0 0 0 -0 -0 -0 -0 0 0 0 0 0 0 0 0 0 0
0 0 0 0 0 0 0 0 0 0 0 0 -0 0 0 0 0 0 0 0 0 0 0 0 0 0 0 0 0 0 0 -0 -0 -0 0 0 0 0 0 0 0 0 0 0
0 0 0 0 0 0 0 0 0 0 0 0 0 0 0 0 0 0 0 0 0 0 0 0 -0 0 0 0 0 0 0 -0 -0 -0 0 0 0 0 0 0 0 0 0 0
0 0 0 0 0 0 0 0 0 0 0 0 0 0 0 0 0 0 0 0 0 0 0 0 0 0 0 0 0 0 0 -0 -0 0 0 0 0 0 0 0 0 0 0 0
0 0 0 0 0 0 0 0 0 0 0 0 0 0 0 0 0 0 0 0 0 0 0 0 0 0 0 0 0 0 0 -0 -0 0 0 0 0 0 0 0 0 0 0 0
Wind_Speed_500mb
30 32 34 36 36 29 12 7 15 3 6 20 9 11 5 6 12 8 2 6 8 8 4 14 11 9 6 1 6 8 10 9 18 11 15 9 14 17 7 7 13 15 22 20
27 29 30 30 33 33 24 15 20 2 6 13 12 8 6 7 9 4 5 4 5 1 7 7 9 4 11 5 8 7 5 7 9 16 17 11 14 15 15 13 11 21 19 18
27 26 27 26 26 26 22 12 8 14 16 14 18 5 15 15 5 5 4 1 7 8 10 10 6 9 9 6 2 4 4 16 20 19 27 13 14 18 20 19 13 24 27 38
29 26 25 25 21 21 14 6 5 9 7 8 11 8 7 18 13 17 14 10 17 11 9 13 13 10 16 14 10 9 8 21 24 25 25 24 26 27 27 27 28 28 34 38
30 27 25 23 19 14 7 12 11 4 23 14 16 9 16 20 12 7 16 16 9 10 13 10 12 7 13 15 21 16 11 16 15 26 29 26 29 30 29 28 27 29 32 36
27 28 23 22 19 11 5 12 12 10 7 15 18 19 19 12 17 12 19 11 11 14 6 3 10 11 12 11 12 14 16 14 15 24 12 17 25 21 18 20 14 20 27 32
29 26 25 18 17 11 8 14 10 16 19 11 17 4 10 15 16 20 13 18 16 9 5 3 8 13 15 19 21 20 16 17 18 22 24 26 5 7 7 15 20 21 27 30
33 29 24 22 16 12 5 12 8 14 15 24 14 17 20 15 12 17 14 13 6 9 8 13 12 14 14 20 20 21 21 17 17 15 20 27 27 11 2 7 21 29 21 22
32 33 28 24 20 15 7 14 11 10 18 11 9 9 16 17 17 18 15 8 11 12 17 16 16 15 12 11 13 13 17 19 18 19 19 16 9 13 8 7 15 9 14 33
31 30 28 24 23 19 16 13 18 9 24 30 7 12 15 20 20 14 25 21 14 15 16 18 21 22 18 17 18 14 17 17 25 22 21 20 11 20 8 7 7 22 33 40
34 31 30 25 24 21 19 8 19 12 24 30 15 17 19 15 18 18 16 14 20 19 17 18 17 13 15 15 21 12 17 12 13 14 24 25 22 19 8 8 27 31 36 38
34 34 31 27 24 24 22 15 19 23 22 27 18 25 27 25 18 17 15 11 4 14 10 12 9 10 10 13 20 15 13 19 10 10 4 7 13 12 12 23 32 35 36 36
36 34 34 29 29 27 28 21 16 15 25 40 45 44 30 33 30 19 15 25 17 9 9 20 9 12 11 15 17 24 21 19 12 12 11 16 24 24 23 24 26 28 31 38
33 37 34 31 30 30 30 24 22 22 19 16 20 19 22 23 28 34 30 15 7 13 13 24 14 17 13 18 18 15 10 15 16 25 31 28 26 19 16 18 22 26 30 35
32 33 34 32 34 38 37 34 30 30 22 13 17 9 27 20 19 27 35 29 23 24 25 19 18 32 18 24 18 21 33 25 19 16 14 7 10 9 13 18 23 26 31 37
32 32 33 34 34 28 32 33 46 43 29 14 10 10 19 20 21 23 31 36 31 35 33 29 35 9 8 13 21 34 29 26 28 27 14 12 11 13 18 18 21 26 30 34
33 33 36 33 35 26 31 12 13 35 39 10 12 18 30 24 22 25 26 30 33 32 36 35 37 23 20 20 27 31 17 23 25 24 16 15 17 15 11 18 20 24 30 35
33 32 33 39 31 38 40 54 15 34 34 15 9 10 14 27 23 25 28 26 33 31 35 29 27 23 20 14 26 39 38 27 30 28 24 19 12 12 15 16 22 28 32 32
29 26 22 27 35 20 32 41 47 39 23 12 13 21 16 28 30 27 19 22 16 23 25 40 23 23 21 19 31 33 34 36 34 29 25 22 19 17 13 18 24 28 32 33
20 12 10 12 21 28 18 19 15 29 21 16 12 33 13 24 32 26 16 17 16 10 21 31 28 29 52 51 37 29 31 37 31 31 28 22 19 15 12 18 21 26 31 29
13 14 15 9 10 20 15 10 10 13 9 18 21 38 13 23 20 15 22 6 7 9 15 14 10 17 45 59 60 38 36 38 33 28 23 18 12 9 10 15 20 26 29 26
20 14 13 18 12 8 7 8 8 12 13 26 30 60 58 25 21 13 14 6 7 12 16 9 12 18 34 40 55 53 41 35 32 29 22 16 13 9 7 14 20 25 25 24
22 14 14 10 10 9 10 16 10 11 18 19 36 34 30 15 17 9 8 12 13 7 10 10 9 20 29 28 38 56 47 34 30 27 22 18 14 9 11 16 20 25 25 25
11 14 11 10 11 13 14 20 4 21 14 34 50 40 15 18 15 9 9 13 8 13 16 17 11 26 27 31 36 47 42 39 34 28 22 17 14 11 12 16 19 25 25 24
15 12 12 17 27 23 12 19 11 20 24 37 36 21 13 8 9 9 13 11 15 14 17 11 33 39 44 43 43 43 41 36 31 25 20 16 13 12 15 17 21 25 22 24
10 13 9 21 18 32 25 21 25 18 18 45 28 9 10 9 9 18 23 16 14 13 9 25 34 49 50 46 43 40 36 32 27 22 17 13 11 12 16 21 23 22 21 25
12 15 29 32 21 22 30 33 22 22 15 5 8 16 16 12 12 22 20 28 11 14 29 25 33 49 51 48 43 38 34 29 23 18 15 11 10 13 19 25 20 20 21 24
Wind_Direction_500mb
342 348 351 352 353 0 358 275 252 83 218 254 240 278 135 25 160 189 193 302 313 287 19 279 276 280 88 112 284 265 66 301 273 248 57 289 285 301 297 277 279 285 308 307
333 341 347 353 354 358 0 299 290 288 213 263 216 100 160 235 193 211 228 172 305 291 269 276 258 233 90 189 255 356 152 240 282 246 184 208 250 243 226 260 279 273 294 280
323 332 339 347 350 351 347 294 264 182 223 270 297 179 210 181 207 166 243 130 241 229 235 215 269 219 149 168 82 69 345 267 259 267 332 334 261 236 245 254 267 272 276 303
316 322 333 338 344 346 347 258 48 335 295 175 271 290 315 227 179 232 222 217 236 237 254 238 231 238 138 193 166 215 257 263 267 263 283 285 278 275 279 275 274 277 289 301
308 314 323 332 341 351 14 318 332 299 276 281 262 182 234 252 217 212 219 248 223 236 251 280 322 284 239 251 157 241 210 269 274 281 267 262 278 278 276 271 273 275 291 299
302 305 316 328 338 16 348 335 303 286 267 228 253 251 226 239 264 185 268 252 225 225 256 308 325 307 308 296 262 214 233 270 264 283 273 282 280 291 249 290 287 292 293 314
292 300 303 314 326 347 21 311 307 272 263 229 263 265 275 260 240 246 205 232 222 100 100 236 243 251 252 242 238 250 240 249 272 271 290 277 68 92 345 292 288 297 297 312
274 280 291 292 295 300 313 316 307 289 273 271 269 235 251 241 230 232 206 181 67 141 196 253 226 211 222 222 232 214 237 254 267 263 280 303 261 167 72 84 296 300 292 322
271 272 270 274 275 275 285 286 283 273 288 285 326 277 240 247 207 182 200 119 165 180 262 233 253 269 290 170 177 233 227 232 263 268 273 276 26 114 91 320 285 55 303 314
270 271 264 255 259 260 257 256 270 262 266 270 286 262 282 226 274 233 173 171 194 210 247 252 259 265 257 265 249 177 211 225 233 243 253 258 104 138 143 259 301 336 318 310
262 264 263 260 248 248 245 246 262 244 268 266 283 256 265 250 245 250 139 179 211 204 240 261 260 248 263 240 266 273 219 216 253 249 264 274 123 138 203 275 312 304 310 311
256 254 253 257 247 239 237 248 268 260 245 263 288 256 245 246 270 284 187 257 320 229 235 228 287 261 251 265 270 166 254 243 273 192 262 109 205 244 276 286 300 307 309 311
249 250 249 248 252 244 233 233 259 277 267 276 255 250 261 241 236 234 258 219 242 232 278 305 290 267 281 259 246 257 198 240 241 268 266 276 239 257 275 285 294 306 304 304
251 243 248 247 245 243 239 235 238 240 267 280 250 207 239 241 228 224 224 261 248 222 244 250 257 260 240 259 290 273 292 162 235 255 265 261 255 263 284 287 299 302 307 316
252 243 243 244 242 236 240 241 231 221 234 301 285 241 239 234 215 218 220 224 227 236 228 234 245 256 263 252 271 266 249 236 245 258 309 262 256 269 277 288 298 308 315 318
250 244 239 247 251 236 226 244 246 227 212 263 257 256 214 216 212 214 213 217 225 234 244 247 250 214 237 261 241 254 251 246 231 247 253 235 257 269 284 287 303 312 315 318
246 245 239 245 245 240 212 211 177 193 197 212 238 242 211 210 200 204 207 210 221 230 236 241 251 228 192 254 257 252 247 238 226 222 212 231 244 255 286 293 304 311 312 317
242 245 243 237 247 250 242 225 230 184 180 203 248 231 172 192 198 195 203 210 218 225 239 231 238 211 222 253 248 246 244 235 219 213 212 233 253 262 275 289 305 311 318 321
237 244 252 252 248 231 236 233 242 230 199 202 237 225 203 175 212 204 185 218 218 232 222 237 231 229 224 235 250 243 224 218 209 207 210 226 238 258 281 298 313 318 320 321
217 219 213 236 230 230 264 229 209 209 211 216 251 228 196 189 190 185 192 191 232 212 227 238 231 242 244 237 252 247 213 204 201 201 201 223 236 255 273 306 316 323 323 321
194 203 219 234 205 191 188 170 179 187 228 211 209 237 194 205 193 201 202 216 242 243 218 203 227 245 235 231 227 223 208 203 204 203 214 219 232 253 280 303 314 321 325 323
202 206 215 168 188 203 172 192 185 211 217 183 200 206 220 181 183 183 202 225 248 241 133 217 237 249 223 220 214 209 201 197 196 201 203 202 211 228 268 307 319 324 322 322
213 220 203 198 177 200 219 194 198 210 195 167 175 186 183 145 185 163 209 217 233 122 218 230 238 249 209 204 197 193 191 194 189 190 191 198 212 231 268 305 315 323 322 322
219 209 205 212 180 229 199 232 183 200 204 185 181 157 152 163 162 151 202 235 210 228 207 228 212 209 182 173 169 173 179 178 180 183 189 204 220 242 281 300 315 322 318 320
223 212 223 214 230 238 238 231 234 219 209 197 160 133 124 120 142 215 228 207 227 217 221 215 219 182 174 170 164 163 165 170 175 181 193 208 233 254 288 305 310 317 314 321
243 226 257 241 259 237 219 246 238 234 263 180 154 141 163 181 196 198 208 214 216 206 166 221 153 162 168 168 165 164 167 171 175 185 196 215 241 268 292 307 312 310 315 320
225 230 235 252 283 264 254 227 219 204 261 181 154 189 183 169 213 214 214 218 214 163 194 163 169 166 164 163 163 165 167 172 178 188 202 228 256 280 297 304 308 309 312 312
Wind_Speed_850mb
30 32 34 36 36 29 12 7 15 3 6 20 9 11 5 6 12 8 2 6 8 8 4 14 11 9 6 1 6 8 10 9 18 11 15 9 14 17 7 7 13 15 22 20
27 29 30 30 33 33 24 15 20 2 6 13 12 8 6 7 9 4 5 4 5 1 7 7 9 4 11 5 8 7 5 7 9 16 17 11 14 15 15 13 11 21 19 18
27 26 27 26 26 26 22 12 8 14 16 14 18 5 15 15 5 5 4 1 7 8 10 10 6 9 9 6 2 4 4 16 20 19 27 13 14 18 20 19 13 24 27 38
29 26 25 25 21 21 14 6 5 9 7 8 11 8 7 18 13 17 14 10 17 11 9 13 13 10 16 14 10 9 8 21 24 25 25 24 26 27 27 27 28 28 34 38
30 27 25 23 19 14 7 12 11 4 23 14 16 9 16 20 12 7 16 16 9 10 13 10 12 7 13 15 21 16 11 16 15 26 29 26 29 30 29 28 27 29 32 36
27 28 23 22 19 11 5 12 12 10 7 15 18 19 19 12 17 12 19 11 11 14 6 3 10 11 12 11 12 14 16 14 15 24 12 17 25 21 18 20 14 20 27 32
29 26 25 18 17 11 8 14 10 16 19 11 17 4 10 15 16 20 13 18 16 9 5 3 8 13 15 19 21 20 16 17 18 22 24 26 5 7 7 15 20 21 27 30
33 29 24 22 16 12 5 12 8 14 15 24 14 17 20 15 12 17 14 13 6 9 8 13 12 14 14 20 20 21 21 17 17 15 20 27 27 11 2 7 21 29 21 22
32 33 28 24 20 15 7 14 11 10 18 11 9 9 16 17 17 18 15 8 11 12 17 16 16 15 12 11 13 13 17 19 18 19 19 16 9 13 8 7 15 9 14 33
31 30 28 24 23 19 16 13 18 9 24 30 7 12 15 20 20 14 25 21 14 15 16 18 21 22 18 17 18 14 17 17 25 22 21 20 11 20 8 7 7 22 33 40
34 31 30 25 24 21 19 8 19 12 24 30 15 17 19 15 18 18 16 14 20 19 17 18 17 13 15 15 21 12 17 12 13 14 24 25 22 19 8 8 27 31 36 38
34 34 31 27 24 24 22 15 19 23 22 27 18 25 27 25 18 17 15 11 4 14 10 12 9 10 10 13 20 15 13 19 10 10 4 7 13 12 12 23 32 35 36 36
36 34 34 29 29 27 28 21 16 15 25 40 45 44 30 33 30 19 15 25 17 9 9 20 9 12 11 15 17 24 21 19 12 12 11 16 24 24 23 24 26 28 31 38
33 37 34 31 30 30 30 24 22 22 19 16 20 19 22 23 28 34 30 15 7 13 13 24 14 17 13 18 18 15 10 15 16 25 31 28 26 19 16 18 22 26 30 35
32 33 34 32 34 38 37 34 30 30 22 13 17 9 27 20 19 27 35 29 23 24 25 19 18 32 18 24 18 21 33 25 19 16 14 7 10 9 13 18 23 26 31 37
32 32 33 34 34 28 32 33 46 43 29 14 10 10 19 20 21 23 31 36 31 35 33 29 35 9 8 13 21 34 29 26 28 27 14 12 11 13 18 18 21 26 30 34
33 33 36 33 35 26 31 12 13 35 39 10 12 18 30 24 22 25 26 30 33 32 36 35 37 23 20 20 27 31 17 23 25 24 16 15 17 15 11 18 20 24 30 35
33 32 33 39 31 38 40 54 15 34 34 15 9 10 14 27 23 25 28 26 33 31 35 29 27 23 20 14 26 39 38 27 30 28 24 19 12 12 15 16 22 28 32 32
29 26 22 27 35 20 32 41 47 39 23 12 13 21 16 28 30 27 19 22 16 23 25 40 23 23 21 19 31 33 34 36 34 29 25 22 19 17 13 18 24 28 32 33
20 12 10 12 21 28 18 19 15 29 21 16 12 33 13 24 32 26 16 17 16 10 21 31 28 29 52 51 37 29 31 37 31 31 28 22 19 15 12 18 21 26 31 29
13 14 15 9 10 20 15 10 10 13 9 18 21 38 13 23 20 15 22 6 7 9 15 14 10 17 45 59 60 38 36 38 33 28 23 18 12 9 10 15 20 26 29 26
20 14 13 18 12 8 7 8 8 12 13 26 30 60 58 25 21 13 14 6 7 12 16 9 12 18 34 40 55 53 41 35 32 29 22 16 13 9 7 14 20 25 25 24
22 14 14 10 10 9 10 16 10 11 18 19 36 34 30 15 17 9 8 12 13 7 10 10 9 20 29 28 38 56 47 34 30 27 22 18 14 9 11 16 20 25 25 25
11 14 11 10 11 13 14 20 4 21 14 34 50 40 15 18 15 9 9 13 8 13 16 17 11 26 27 31 36 47 42 39 34 28 22 17 14 11 12 16 19 25 25 24
15 12 12 17 27 23 12 19 11 20 24 37 36 21 13 8 9 9 13 11 15 14 17 11 33 39 44 43 43 43 41 36 31 25 20 16 13 12 15 17 21 25 22 24
10 13 9 21 18 32 25 21 25 18 18 45 28 9 10 9 9 18 23 16 14 13 9 25 34 49 50 46 43 40 36 32 27 22 17 13 11 12 16 21 23 22 21 25
12 15 29 32 21 22 30 33 22 22 15 5 8 16 16 12 12 22 20 28 11 14 29 25 33 49 51 48 43 38 34 29 23 18 15 11 10 13 19 25 20 20 21 24
Wind_Direction_850mb
342 348 351 352 353 0 358 275 252 83 218 254 240 278 135 25 160 189 193 302 313 287 19 279 276 280 88 112 284 265 66 301 273 248 57 289 285 301 297 277 279 285 308 307
333 341 347 353 354 358 0 299 290 288 213 263 216 100 160 235 193 211 228 172 305 291 269 276 258 233 90 189 255 356 152 240 282 246 184 208 250 243 226 260 279 273 294 280
323 332 339 347 350 351 347 294 264 182 223 270 297 179 210 181 207 166 243 130 241 229 235 215 269 219 149 168 82 69 345 267 259 267 332 334 261 236 245 254 267 272 276 303
316 322 333 338 344 346 347 258 48 335 295 175 271 290 315 227 179 232 222 217 236 237 254 238 231 238 138 193 166 215 257 263 267 263 283 285 278 275 279 275 274 277 289 301
308 314 323 332 341 351 14 318 332 299 276 281 262 182 234 252 217 212 219 248 223 236 251 280 322 284 239 251 157 241 210 269 274 281 267 262 278 278 276 271 273 275 291 299
302 305 316 328 338 16 348 335 303 286 267 228 253 251 226 239 264 185 268 252 225 225 256 308 325 307 308 296 262 214 233 270 264 283 273 282 280 291 249 290 287 292 293 314
292 300 303 314 326 347 21 311 307 272 263 229 263 265 275 260 240 246 205 232 222 100 100 236 243 251 252 242 238 250 240 249 272 271 290 277 68 92 345 292 288 297 297 312
274 280 291 292 295 300 313 316 307 289 273 271 269 235 251 241 230 232 206 181 67 141 196 253 226 211 222 222 232 214 237 254 267 263 280 303 261 167 72 84 296 300 292 322
271 272 270 274 275 275 285 286 283 273 288 285 326 277 240 247 207 182 200 119 165 180 262 233 253 269 290 170 177 233 227 232 263 268 273 276 26 114 91 320 285 55 303 314
270 271 264 255 259 260 257 256 270 262 266 270 286 262 282 226 274 233 173 171 194 210 247 252 259 265 257 265 249 177 211 225 233 243 253 258 104 138 143 259 301 336 318 310
262 264 263 260 248 248 245 246 262 244 268 266 283 256 265 250 245 250 139 179 211 204 240 261 260 248 263 240 266 273 219 216 253 249 264 274 123 138 203 275 312 304 310 311
256 254 253 257 247 239 237 248 268 260 245 263 288 256 245 246 270 284 187 257 320 229 235 228 287 261 251 265 270 166 254 243 273 192 262 109 205 244 276 286 300 307 309 311
249 250 249 248 252 244 233 233 259 277 267 276 255 250 261 241 236 234 258 219 242 232 278 305 290 267 281 259 246 257 198 240 241 268 266 276 239 257 275 285 294 306 304 304
251 243 248 247 245 243 239 235 238 240 267 280 250 207 239 241 228 224 224 261 248 222 244 250 257 260 240 259 290 273 292 162 235 255 265 261 255 263 284 287 299 302 307 316
252 243 243 244 242 236 240 241 231 221 234 301 285 241 239 234 215 218 220 224 227 236 228 234 245 256 263 252 271 266 249 236 245 258 309 262 256 269 277 288 298 308 315 318
250 244 239 247 251 236 226 244 246 227 212 263 257 256 214 216 212 214 213 217 225 234 244 247 250 214 237 261 241 254 251 246 231 247 253 235 257 269 284 287 303 312 315 318
246 245 239 245 245 240 212 211 177 193 197 212 238 242 211 210 200 204 207 210 221 230 236 241 251 228 192 254 257 252 247 238 226 222 212 231 244 255 286 293 304 311 312 317
242 245 243 237 247 250 242 225 230 184 180 203 248 231 172 192 198 195 203 210 218 225 239 231 238 211 222 253 248 246 244 235 219 213 212 233 253 262 275 289 305 311 318 321
237 244 252 252 248 231 236 233 242 230 199 202 237 225 203 175 212 204 185 218 218 232 222 237 231 229 224 235 250 243 224 218 209 207 210 226 238 258 281 298 313 318 320 321
217 219 213 236 230 230 264 229 209 209 211 216 251 228 196 189 190 185 192 191 232 212 227 238 231 242 244 237 252 247 213 204 201 201 201 223 236 255 273 306 316 323 323 321
194 203 219 234 205 191 188 170 179 187 228 211 209 237 194 205 193 201 202 216 242 243 218 203 227 245 235 231 227 223 208 203 204 203 214 219 232 253 280 303 314 321 325 323
202 206 215 168 188 203 172 192 185 211 217 183 200 206 220 181 183 183 202 225 248 241 133 217 237 249 223 220 214 209 201 197 196 201 203 202 211 228 268 307 319 324 322 322
213 220 203 198 177 200 219 194 198 210 195 167 175 186 183 145 185 163 209 217 233 122 218 230 238 249 209 204 197 193 191 194 189 190 191 198 212 231 268 305 315 323 322 322
219 209 205 212 180 229 199 232 183 200 204 185 181 157 152 163 162 151 202 235 210 228 207 228 212 209 182 173 169 173 179 178 180 183 189 204 220 242 281 300 315 322 318 320
223 212 223 214 230 238 238 231 234 219 209 197 160 133 124 120 142 215 228 207 227 217 221 215 219 182 174 170 164 163 165 170 175 181 193 208 233 254 288 305 310 317 314 321
243 226 257 241 259 237 219 246 238 234 263 180 154 141 163 181 196 198 208 214 216 206 166 221 153 162 168 168 165 164 167 171 175 185 196 215 241 268 292 307 312 310 315 320
225 230 235 252 283 264 254 227 219 204 261 181 154 189 183 169 213 214 214 218 214 163 194 163 169 166 164 163 163 165 167 172 178 188 202 228 256 280 297 304 308 309 312 312